Earlysville, VA

6:14 AM EST on February 10, 2016 (GMT -0500)
Charlottesville-Albemarle

Weather History for KCHO - February, 2013

Change the Weather History Date:

Friday, February 8, 2013

  Actual Average Record
Temperature  
Mean Temperature 41 °F 37 °F  
Max Temperature 50 °F 47 °F 74 °F (1925)
Min Temperature 32 °F 27 °F 9 °F (1951)
Degree Days  
Heating Degree Days 24 28  
Month to date heating degree days 248 228  
Since 1 July heating degree days 2532 2888  
Cooling Degree Days 0 0  
Month to date cooling degree days 0 0  
Year to date cooling degree days 0 0  
Moisture  
Dew Point 31 °F    
Average Humidity 74    
Maximum Humidity 100    
Minimum Humidity 48    
Precipitation  
Precipitation 0.27 in 0.09 in 2.35 in (1965)
Month to date precipitation 0.28 0.62  
Year to date precipitation 5.33 3.39  
Sea Level Pressure  
Sea Level Pressure 29.92 in    
Wind  
Wind Speed 5 mph (NNW)    
Max Wind Speed 17 mph    
Max Gust Speed 29 mph    
Visibility 5 miles    
Events Snow    
T = Trace of Precipitation, MM = Missing Value Source: NWS Daily Summary

Daily Weather History Graph

Daily Weather History Graph

Search for Another Location

Airport or City:

Trip Planner

Search our weather history database for the weather conditions in past years. The results will help you decide how hot, cold, wet, or windy it might be!

Date:

Astronomy

Feb. 08, 2013 Rise Set
Actual Time 7:11 AM EST 5:44 PM EST
Civil Twilight 6:44 AM EST 6:12 PM EST
Nautical Twilight 6:13 AM EST 6:43 PM EST
Astronomical Twilight 5:42 AM EST 7:14 PM EST
Moon 5:38 AM EST (2/8) 4:16 PM EST (2/8)
Length of Visible Light 11h 28m
Length of Day
10h 33m
Waning Crescent, 3% of the Moon is Illuminated
Feb 8
Waning Crescent
Feb 10
New
Feb 17
First Quarter
Feb 25
Full
Mar 4
Last Quarter

Hourly Weather History & Observations

Time (EST) Temp. Windchill Dew Point Humidity Pressure Visibility Wind Dir Wind Speed Gust Speed Precip Events Conditions
12:18 AM 35.6 °F 29.9 °F 28.4 °F 75% 30.14 in 2.0 mi NE 6.9 mph - 0.00 in Snow Light Snow
12:53 AM 33.1 °F 26.9 °F 30.0 °F 89% 30.13 in 2.0 mi NNE 6.9 mph - 0.00 in Snow Light Snow
1:05 AM 33.8 °F 28.6 °F 30.2 °F 87% 30.12 in 1.8 mi NNE 5.8 mph - 0.00 in Snow Light Snow
1:53 AM 32.0 °F 27.5 °F 30.9 °F 96% 30.11 in 1.5 mi NNE 4.6 mph - 0.00 in Snow Light Snow
2:53 AM 32.0 °F 27.5 °F 30.9 °F 96% 30.08 in 1.5 mi NNE 4.6 mph - 0.00 in Snow Light Snow
3:53 AM 32.0 °F 27.5 °F 30.9 °F 96% 30.05 in 1.2 mi North 4.6 mph - 0.00 in Snow Light Snow
4:53 AM 32.0 °F 27.5 °F 30.9 °F 96% 30.02 in 1.2 mi North 4.6 mph - 0.00 in Snow Light Snow
5:49 AM 32.0 °F 26.4 °F 30.2 °F 93% 29.98 in 2.0 mi North 5.8 mph - 0.00 in Snow Light Snow
5:53 AM 32.0 °F 27.5 °F 30.9 °F 96% 29.99 in 3.0 mi North 4.6 mph - 0.00 in Snow Light Snow
6:02 AM 32.0 °F 26.4 °F 30.2 °F 93% 29.97 in 2.0 mi NNE 5.8 mph - 0.00 in   Overcast
6:53 AM 32.0 °F 28.7 °F 30.9 °F 96% 29.97 in 2.0 mi NNW 3.5 mph - 0.00 in   Overcast
7:53 AM 32.0 °F - 32.0 °F 100% 29.94 in 4.0 mi Calm Calm - 0.01 in   Overcast
8:16 AM 33.8 °F - 32.0 °F 93% 29.92 in 1.8 mi Calm Calm - N/A   Overcast
8:31 AM 33.8 °F - 32.0 °F 93% 29.90 in 3.0 mi Calm Calm - N/A   Overcast
8:53 AM 33.1 °F - 32.0 °F 96% 29.91 in 5.0 mi Calm Calm - N/A   Overcast
9:05 AM 33.8 °F - 32.0 °F 93% 29.88 in 1.0 mi Calm Calm - 0.01 in   Overcast
9:53 AM 33.1 °F - 33.1 °F 100% 29.88 in 1.0 mi Calm Calm - 0.07 in   Overcast
10:36 AM 35.6 °F - 33.8 °F 93% 29.85 in 1.5 mi Calm Calm - 0.10 in   Overcast
10:53 AM 37.0 °F - 35.1 °F 93% 29.86 in 3.0 mi Calm Calm - 0.13 in   Overcast
11:53 AM 39.0 °F - 36.0 °F 89% 29.85 in 3.0 mi Calm Calm - 0.06 in   Overcast
12:53 PM 41.0 °F - 37.9 °F 89% 29.81 in 10.0 mi Calm Calm - N/A   Overcast
1:53 PM 44.1 °F - 37.9 °F 79% 29.78 in 10.0 mi Calm Calm - N/A   Overcast
2:12 PM 44.6 °F - 37.4 °F 76% 29.77 in 10.0 mi Calm Calm - N/A   Overcast
2:36 PM 46.4 °F - 37.4 °F 71% 29.77 in 10.0 mi Calm Calm - N/A   Mostly Cloudy
2:53 PM 46.9 °F - 37.9 °F 71% 29.76 in 10.0 mi Calm Calm - N/A   Partly Cloudy
3:53 PM 48.0 °F - 37.9 °F 68% 29.77 in 10.0 mi Calm Calm - N/A   Clear
4:53 PM 48.9 °F - 33.1 °F 54% 29.79 in 10.0 mi NW 9.2 mph 24.2 mph N/A   Mostly Cloudy
5:53 PM 45.0 °F 40.1 °F 27.0 °F 49% 29.84 in 10.0 mi West 9.2 mph 17.3 mph N/A   Overcast
6:53 PM 43.0 °F 36.8 °F 26.1 °F 51% 29.86 in 10.0 mi WNW 11.5 mph 20.7 mph N/A   Mostly Cloudy
7:53 PM 41.0 °F 35.8 °F 26.1 °F 55% 29.89 in 10.0 mi NW 8.1 mph - N/A   Overcast
8:53 PM 39.9 °F 31.8 °F 21.0 °F 47% 29.90 in 10.0 mi WNW 15.0 mph 25.3 mph N/A   Clear
9:53 PM 39.0 °F 32.8 °F 21.0 °F 49% 29.91 in 10.0 mi NW 9.2 mph 21.9 mph N/A   Clear
10:53 PM 37.9 °F 30.5 °F 21.0 °F 51% 29.94 in 10.0 mi NW 11.5 mph 24.2 mph N/A   Clear
11:53 PM 37.0 °F 31.0 °F 19.9 °F 50% 29.96 in 10.0 mi NW 8.1 mph 19.6 mph N/A   Clear